TimeCDT,TemperatureF,Dew PointF,Humidity,Sea Level PressureIn,VisibilityMPH,Wind Direction,Wind SpeedMPH,Gust SpeedMPH,PrecipitationIn,Events,Conditions,WindDirDegrees,DateUTC
12:52 AM,30.0,21.0,69,29.97,10.0,WNW,6.9,-,N/A,,Clear,290,2012-11-01 05:52:00
1:52 AM,28.9,21.0,72,29.97,10.0,WNW,3.5,-,N/A,,Clear,290,2012-11-01 06:52:00
2:52 AM,28.0,21.9,78,29.96,10.0,West,3.5,-,N/A,,Partly Cloudy,280,2012-11-01 07:52:00
3:52 AM,30.9,24.1,76,29.94,10.0,West,4.6,-,N/A,,Mostly Cloudy,280,2012-11-01 08:52:00
4:52 AM,33.1,25.0,72,29.95,10.0,West,5.8,-,N/A,,Overcast,280,2012-11-01 09:52:00
5:52 AM,34.0,27.0,75,29.94,10.0,Calm,Calm,-,N/A,,Overcast,0,2012-11-01 10:52:00
6:52 AM,35.1,27.0,72,29.95,10.0,West,5.8,-,N/A,,Overcast,260,2012-11-01 11:52:00
7:52 AM,36.0,27.0,70,29.96,10.0,West,5.8,-,N/A,,Overcast,260,2012-11-01 12:52:00
8:52 AM,39.0,28.9,67,29.96,9.0,Calm,Calm,-,N/A,,Overcast,0,2012-11-01 13:52:00
9:52 AM,45.0,30.0,56,29.96,10.0,WSW,3.5,-,N/A,,Mostly Cloudy,250,2012-11-01 14:52:00
10:52 AM,48.9,28.9,46,29.94,10.0,WSW,3.5,-,N/A,,Mostly Cloudy,240,2012-11-01 15:52:00
11:52 AM,53.1,30.9,43,29.94,10.0,Variable,4.6,-,N/A,,Mostly Cloudy,0,2012-11-01 16:52:00
12:52 PM,54.0,32.0,43,29.91,9.0,WNW,6.9,-,N/A,,Overcast,290,2012-11-01 17:52:00
1:52 PM,55.9,32.0,40,29.88,9.0,WSW,6.9,-,N/A,,Clear,250,2012-11-01 18:52:00
2:52 PM,59.0,33.1,38,29.87,9.0,WNW,10.4,-,N/A,,Clear,290,2012-11-01 19:52:00
3:52 PM,59.0,33.1,38,29.86,10.0,NW,15.0,23.0,N/A,,Clear,310,2012-11-01 20:52:00
4:52 PM,57.0,30.0,36,29.86,10.0,NW,16.1,-,N/A,,Clear,310,2012-11-01 21:52:00
5:52 PM,51.1,32.0,48,29.88,10.0,NW,12.7,-,N/A,,Clear,320,2012-11-01 22:52:00
6:52 PM,46.9,32.0,56,29.89,10.0,NNW,10.4,-,N/A,,Clear,330,2012-11-01 23:52:00
7:52 PM,44.1,30.9,60,29.93,10.0,NNW,9.2,-,N/A,,Clear,330,2012-11-02 00:52:00
8:52 PM,39.0,30.0,70,29.94,10.0,North,8.1,-,N/A,,Clear,350,2012-11-02 01:52:00
9:52 PM,35.1,28.0,76,29.95,10.0,NNW,8.1,-,N/A,,Clear,340,2012-11-02 02:52:00
10:52 PM,34.0,28.0,79,29.97,10.0,North,5.8,-,N/A,,Clear,360,2012-11-02 03:52:00
11:52 PM,33.1,27.0,78,29.98,10.0,North,4.6,-,N/A,,Clear,350,2012-11-02 04:52:00